User: anonymous   Login
Location: Unspecified
(17.6330°N, 0.0000°E)
Time: 23:24:40
(UTC+00:00)
Language:

NANOSAT C BR1 - Orbit

View from above orbital plane
View from above orbital plane
View from above satellite
View from above satellite

Ground track
Ground track

The orbit data is extracted from the following two-line orbital elements,

1 40024U 14033Q   19200.19668495  .00000254  00000-0  32400-4 0  9995
2 40024  97.9130 122.2370 0011293 319.2105  40.8266 14.89856516275985
Epoch (UTC): 19 July 2019 04:43:13
Eccentricity: 0.0011293
inclination: 97.9130°
perigee height: 590 km
apogee height: 606 km
right ascension of ascending node: 122.2370°
argument of perigee: 319.2105°
revolutions per day: 14.89856516
mean anomaly at epoch: 40.8266°
orbit number at epoch: 27598

The dashed part of the orbit path shows where the satellite is in the earth's shadow,  

DLR